Details From EDDF - Frankfurt Am Main
To LJPZ - Portoroz
Flight Number -
Tags Decoded
Created
Modified
Stats Distance 536 nm / 994 km
Max Altitude 0 ft / 0 m
Waypoints 5
Social Downloads 0
Likes 0
Share VATSIM

Download

Looking for another format? Having issues loading an existing format? Contact us
Advertisement - Login to hide

Notes

Decoded

Route

EDDF STE LOWW LJLJ LJPZ

ID Type Via Altitude Latitude Longitude Leg Dist Tot Dist Heading (true) Name
O EDDF APT - 0 ft / 0 m 50.02754˚ 8.53417˚ - 0 nm - -
STE NDB - 0 ft / 0 m 48.21062˚ 16.24714˚ 322 nm 322 nm 107° / 113° STEINHOF NDB
LOWW APT - 0 ft / 0 m 48.11978˚ 16.57818˚ 14 nm 336 nm 112° / 112° -
LJLJ APT - 0 ft / 0 m 46.23249˚ 14.44039˚ 143 nm 479 nm 218° / 217° -
O LJPZ APT - 0 ft / 0 m 45.47718˚ 13.61198˚ 57 nm 536 nm 218° / 217° -

Altitude Profile

Advertisement - Login to hide

Weather


0- 5 10 15 20 25 30 35+ Temperature / ° C

Clouds and Precipitation
Forecast for 2018-05-21 06:00 UTC. Updated 23 minutes ago

Ground ~20,000 ft ~40,000 ft Winds

EDDF

Details ICAO EDDF (FRA)
Name Frankfurt am Main
Region Germany - Civil
Timezone Europe/Berlin (UTC+2.0)
Stats Elevation 355 ft / 108 m (AMSL)
Location 50.032604° 8.540641°
Runways 4
Magnetic Variation 2.399° E

METAR

EDDF 210320Z 02012KT CAVOK 16/06 Q1016 NOSIG

Decode

TAF

TAF EDDF 202300Z 2100/2206 03010KT CAVOK BECMG 2109/2111 09010KT BECMG 2117/2119 05004KT

Decode

Departure Runways

ID Width Length Bearing (true) Bearing (mag) Surface Threshold Offset Overrun Length
07C 197 ft / 60 m 13,091 ft / 3,990 m 69.57° 67.17° Asphalt 0 ft / 0 m 230 ft / 70 m
07L 148 ft / 45 m 9,164 ft / 2,793 m 69.54° 67.14° Concrete 0 ft / 0 m 328 ft / 100 m
07R 148 ft / 45 m 13,094 ft / 3,991 m 69.57° 67.17° Asphalt 0 ft / 0 m 230 ft / 70 m
18 148 ft / 45 m 13,056 ft / 3,980 m 179.84° 177.44° Concrete 0 ft / 0 m 49 ft / 15 m
25C 197 ft / 60 m 13,091 ft / 3,990 m 249.61° 247.21° Asphalt 0 ft / 0 m 1,152 ft / 351 m
25L 148 ft / 45 m 13,094 ft / 3,991 m 249.61° 247.21° Asphalt 0 ft / 0 m 2,051 ft / 625 m
25R 148 ft / 45 m 9,164 ft / 2,793 m 249.57° 247.17° Concrete 0 ft / 0 m 328 ft / 100 m
36 148 ft / 45 m 13,056 ft / 3,980 m 359.84° 357.44° Concrete 0 ft / 0 m 190 ft / 58 m

LJPZ

Details ICAO LJPZ (POW)
Name PORTOROZ
Region Slovenia
Timezone Europe/Ljubljana (UTC+2.0)
Stats Elevation 7 ft / 2 m (AMSL)
Location 45.472445° 13.615681°
Runways 1
Magnetic Variation 3.492° E

METAR

LJPZ 210330Z AUTO 14002KT 9999 NCD 12/10 Q1014

Decode

TAF

Not found

Destination Runways

ID Width Length Bearing (true) Bearing (mag) Surface Threshold Offset Overrun Length
15 98 ft / 30 m 3,939 ft / 1,201 m 151.28° 147.79° Asphalt 0 ft / 0 m 0 ft / 0 m
33 98 ft / 30 m 3,939 ft / 1,201 m 331.29° 327.80° Asphalt 751 ft / 229 m 0 ft / 0 m

Popular Alternatives